Location: Dvur Kralove nad Labem
(50.4330°N, 15.8170°E)
Time: 15:01:15
(UTC+02:00)

ISS - Pass Details

Date: 22 May 2018
Orbit: 402 x 407 km, 51.6° (Epoch: 24 May)

Event Time Altitude Azimuth Distance (km) Brightness Sun altitude
Rises 21:24:05 0° 211° (SSW) 2,309 -0.1 -5.4°
Reaches altitude 10° 21:26:28 10° 194° (SSW) 1,453 -1.3 -5.7°
Maximum altitude 21:29:00 21° 143° (SE) 973 -2.5 -6.0°
Drops below altitude 10° 21:31:31 10° 92° (E) 1,458 -1.5 -6.3°
Sets 21:33:55 0° 76° (ENE) 2,320 -0.3 -6.6°
